Home   Weather   Darwin   Past weeks

Flag for Australia Past Weather in Darwin, Northern Territory, Australia — Yesterday and Last 2 Weeks

Now
84 °F

Passing clouds.


Feels Like: 96 °F
Forecast: 83 / 91 °F
Wind: 7 mph from Northwest

Location: Darwin Airport

Current Time: Dec 8, 2016 at 2:12:16 am

Latest Report: Dec 8, 2016 at 1:30 am


Visibility: N/A

Pressure: 29.71 "Hg

Humidity: 84%

Dew Point: 79 °F

Location of DarwinLocation

Past Weather in Darwin — Graph

°F

Darwin Temperature Yesterday

Maximum temperature yesterday: 91 °F (at 11:30 am)
Minimum temperature yesterday: 79 °F (at 12:00 am)
Average temperature yesterday: 86 °F

High & Low Weather Summary for the Past Weeks

 TemperatureHumidityPressure
High95 °F (Dec 4, 3:30 pm)100% (Nov 23, 4:30 am)29.86 "Hg (Nov 23, 4:30 am)
Low73 °F (Nov 23, 4:30 am)30% (Dec 4, 4:30 pm)29.68 "Hg (Nov 24, 3:30 pm)
Average84 °F75%29.77 "Hg
* Reported Nov 23 12:30 am — Dec 8 12:30 am, Darwin, Weather by CustomWeather, © 2016

Note: Actual official high and low records may vary slightly from our data, if they occured in-between our weather recording intervals... More about our weather records

Advertising

Darwin Weather History for the Previous 24 Hours

Scroll right to see more
 ConditionsComfort  
Time TempWeatherWind HumidityBarometerVisibility
12:30 am
Thu, Dec 8
84 °FPassing clouds.7 mph84%29.74 "HgN/A
11:30 pm
Wed, Dec 7
86 °FPassing clouds.7 mph79%29.74 "HgN/A
11:00 pm84 °FPassing clouds.5 mph89%29.77 "HgN/A
10:30 pm84 °FClear.6 mph84%29.74 "Hg10 mi
10:00 pm86 °FClear.3 mph79%29.74 "Hg10 mi
9:30 pm86 °FClear.3 mph79%29.74 "Hg10 mi
9:00 pm86 °FClear.6 mph75%29.74 "Hg10 mi
8:30 pm86 °FClear.6 mph79%29.74 "Hg10 mi
8:00 pm86 °FClear.7 mph75%29.71 "Hg10 mi
7:30 pm86 °FBroken clouds.6 mph75%29.71 "HgN/A
7:00 pm88 °FBroken clouds.8 mph70%29.71 "HgN/A
6:30 pm88 °FSprinkles. Broken clouds.7 mph70%29.71 "HgN/A
6:00 pm90 °FThundershowers. Partly sunny.9 mph63%29.68 "HgN/A
5:30 pm90 °FScattered showers. Partly sunny.9 mph63%29.68 "HgN/A
5:00 pm90 °FPartly sunny.12 mph67%29.68 "HgN/A
4:30 pm90 °FPartly sunny.13 mph71%29.68 "HgN/A
4:00 pm90 °FRain showers. Partly sunny.13 mph71%29.68 "HgN/A
3:30 pm91 °FScattered showers. Partly sunny.13 mph59%29.68 "HgN/A
3:00 pm91 °FPartly sunny.14 mph63%29.68 "HgN/A
2:00 pm91 °FPartly sunny.12 mph63%29.71 "HgN/A
1:30 pm90 °FPartly sunny.10 mph63%29.74 "HgN/A
1:00 pm90 °FPartly sunny.9 mph63%29.74 "HgN/A
12:30 pm90 °FPartly sunny.8 mph63%29.74 "HgN/A
12:00 pm90 °FPartly sunny.7 mph63%29.77 "HgN/A
11:30 am91 °FHot.6 mph56%29.77 "HgN/A
11:00 am90 °FPartly sunny.5 mph55%29.80 "HgN/A
10:30 am90 °FPartly sunny.3 mph67%29.80 "HgN/A
10:00 am88 °FScattered clouds.6 mph70%29.80 "HgN/A
9:30 am90 °FScattered clouds.2 mph63%29.83 "HgN/A
9:00 am88 °FThunderstorms. Passing clouds.3 mph75%29.83 "HgN/A
8:30 am86 °FPartly sunny.2 mph79%29.83 "HgN/A
8:00 am86 °FPassing clouds.2 mph79%29.83 "HgN/A
7:30 am86 °FPassing clouds.1 mph79%29.80 "HgN/A
7:00 am82 °FPassing clouds.No wind89%29.80 "HgN/A
6:30 am81 °FPassing clouds.No wind94%29.80 "HgN/A
6:00 am81 °FPassing clouds.N/A94%29.80 "HgN/A
5:30 am79 °FWarm.N/A100%29.77 "HgN/A
5:00 am81 °FClear.N/A94%29.77 "HgN/A
4:30 am79 °FClear.N/A100%29.77 "HgN/A
3:30 am81 °FClear.N/A94%29.74 "HgN/A
3:00 am82 °FClear.N/A84%29.74 "HgN/A
2:30 am81 °FPassing clouds.N/A89%29.74 "HgN/A
2:00 am81 °FPassing clouds.No wind94%29.77 "HgN/A
Weather by CustomWeather, © 2016

See weather overviewHow to use our weather pages